Flag for Germany Weather past 2 weeks in Lehrte, Lower Saxony, Germany

Now
60 °F

Overcast.


Feels Like: 60 °F
Forecast: 42 / 67 °F
Wind: 3 mph from Northwest

Location: Hannover

Current Time: May 23, 2015 at 10:50:49 AM

Latest Report: May 23, 2015 at 10:00 AM


Visibility: 9 mi

Pressure: 30.15 "Hg

Humidity: 69%

Dew point: 49 °F

Location of LehrteLocation

Historic Weather in Lehrte — Graph

°F

Lehrte temperature yesterday

Maximum temperature yesterday: 66 °F (at 5:00 PM)
Minimum temperature yesterday: 45 °F (at 6:00 AM)
Average temperature yesterday: 57 °F

Past Weeks' High & Low Weather Summary

 TemperatureHumidityPressure
High76 °F (May 12, 1:00 PM)99% (May 15, 4:00 AM)30.35 "Hg (May 15, 4:00 AM)
Low34 °F (May 15, 5:00 AM)41% (May 11, 6:00 PM)29.60 "Hg (May 18, 9:00 PM)
Average54 °F67%30.06 "Hg
* Reported May 8 10:00 AM — May 23 10:00 AM, Lehrte, Weather by CustomWeather, © 2015

Note: Actual official high and low records may vary slightly from our data, if they occured in-between our weather recording intervals... More about our weather records

Advertising

Lehrte weather history for previous 24 hours

 ConditionsComfort  
Time TempWeatherWind HumidityBarometerVisibility
10:00 AM
Sat, May 23
60 °FOvercast.3 mph69%30.15 "Hg9 mi
9:00 AM57 °FOvercast.2 mph76%30.15 "Hg6 mi
8:00 AM55 °FOvercast.2 mph83%30.15 "Hg7 mi
7:00 AM54 °FOvercast.1 mph84%30.14 "Hg8 mi
6:00 AM53 °FOvercast.2 mph83%30.14 "Hg16 mi
5:00 AM53 °FOvercast.2 mph81%30.14 "Hg16 mi
4:00 AM54 °FOvercast.2 mph76%30.15 "Hg19 mi
3:00 AM55 °FOvercast.1 mph76%30.15 "Hg19 mi
2:00 AM55 °FOvercast.2 mph74%30.17 "Hg19 mi
1:00 AM56 °FOvercast.1 mph72%30.18 "Hg19 mi
12:00 AM56 °FOvercast.1 mph73%30.19 "Hg22 mi
11:00 PM
Fri, May 22
55 °FOvercast.2 mph74%30.19 "Hg22 mi
10:00 PM55 °FPassing clouds.2 mph74%30.19 "Hg22 mi
9:00 PM60 °FScattered clouds.1 mph62%30.19 "Hg22 mi
8:00 PM63 °FScattered clouds.2 mph52%30.19 "Hg25 mi
7:00 PM64 °FPartly sunny.3 mph53%30.20 "Hg16 mi
6:00 PM65 °FOvercast.5 mph50%30.21 "Hg16 mi
5:00 PM66 °FPartly sunny.3 mph45%30.22 "Hg25 mi
4:00 PM65 °FPartly sunny.5 mph49%30.24 "Hg25 mi
3:00 PM63 °FPartly sunny.3 mph50%30.25 "Hg25 mi
2:00 PM64 °FPartly sunny.5 mph50%30.27 "Hg25 mi
1:00 PM63 °FPartly sunny.3 mph51%30.28 "Hg25 mi
12:00 PM62 °FScattered clouds.5 mph49%30.30 "Hg25 mi
10:00 AM59 °FScattered clouds.2 mph59%30.32 "Hg25 mi
Weather by CustomWeather, © 2015

See weather overviewHow to use our weather pages